Regional Weather Roundup
Issued by NWS Newport/Morehead, NC

Home | Current Version | Previous Version | Text Only | Print | Product List | Glossary On
Versions: 1 2 3 4 5 6 7 8 9 10 11 12 13 14 15 16 17 18 19 20 21 22 23 24 25 26 27 28 29 30 31 32 33 34 35 36 37 38 39 40 41 42 43 44 45 46 47 48 49 50
000
ASUS42 KMHX 041925
RWRMHX
WEATHER ROUNDUP FOR EASTERN NORTH CAROLINA
NATIONAL WEATHER SERVICE NEWPORT/MOREHEAD CITY NC
300 PM EDT SAT JUL 04 2015

NOTE: "FAIR" INDICATES FEW OR NO CLOUDS BELOW 12,000 FEET
WITH NO SIGNIFICANT WEATHER AND/OR OBSTRUCTIONS TO VISIBILITY

NCZ015>017-031-032-045>047-102-103-042000-
NORTH COAST

CITY           SKY/WX    TMP DP  RH WIND       PRES   REMARKS
EDENTON        DRIZZLE   79  71  75 W12G18    29.96R
ELIZABETH CITY PTSUNNY   85  73  67 SW12      29.93S
KITTY HAWK     DRIZZLE   85  71  63 SW7G16    29.94S
MANTEO         HVY RAIN  73  70  90 NW7G26    29.95F VSB 1

$$

NCZ045>047-081-094-103-104-042000-
CENTRAL COAST

CITY           SKY/WX    TMP DP  RH WIND       PRES   REMARKS
FRISCO         SUNNY     83  72  69 SW16G28   29.99S
SWANQUARTER      N/A     90 N/A N/A SW17G26   29.91F

$$

NCZ095-097-098-100-101-042000-
SOUTHERN COAST

CITY           SKY/WX    TMP DP  RH WIND       PRES   REMARKS
BEAUFORT       SUNNY     85  76  74 SW23G31   30.01S
CEDAR ISLAND     N/A     91 N/A N/A SW7G26    30.03S
JACKSONVILLE   SUNNY     89  66  46 W18G26    30.00F
PINEY ISLAND   PTCLDY   N/A N/A N/A SW22G30   29.98F
WILMINGTON     SUNNY     92  66  42 W17G28    30.03S


$$

NCZ011>013-027>030-043-044-078>080-089-090>093-098-042000-
COASTAL PLAIN

CITY           SKY/WX    TMP DP  RH WIND       PRES   REMARKS
AHOSKIE        PTSUNNY  N/A N/A N/A CALM      29.94S
CLINTON        MOSUNNY   88  70  54 W13G25    30.01S
ELIZABETHTOWN  PTSUNNY   88  66  47 W12G24    30.03F
GOLDSBORO      MOSUNNY   90  69  50 W17G31    29.96S
GREENVILLE     PTSUNNY   77  72  83 W6        29.99F
HAVELOCK       SUNNY     93  65  39 W25       29.99F
KENANSVILLE    MOSUNNY   89  66  46 SW15      30.01S
KINSTON        MOSUNNY   90  68  48 SW15G24   29.98S
NEW BERN       SUNNY     89  69  51 SW18G29   30.00S
RICHLANDS      SUNNY     91  64  40 SW23G29   30.01R
ROCKY MOUNT    LGT RAIN  74  71  91 SW10      29.99R FOG
WASHINGTON     MOSUNNY   80  70  69 NW10      29.97S
WHITEVILLE     MOSUNNY   87  66  49 W8G17     30.04S

$$

AMZ130-135-150-152-154-156-158-170-250-252-270-ANZ085-086-088-633-658-670-042000-
MARINE OBSERVATIONS

STATION/POSITION TIME  TEMP    WIND        PRES    WAVE   SWELL
                       AIR SEA DIR/SP/G            HT/PER HT/PER
                 (UTC) (F)     (DEG/KT/KT) (MB)    (FT/S) (FT/S)
CHESAPEAKE LIGHT 1900   78     300/ 11/ 12 1013.9
64 E VA BEACH    1850   78 76  250/  8/ 10 1013.8    5/ 8   5/ 8
DUCK             1900   85 69  250/ 12/ 17   N/A
2 E DUCK         1811      77                N/A     2/14   2/14
OREGON INLET     1900   84 82  200/ 19/ 22 1013.8
13E OREGON INLT  1900      69                N/A     5/ 7   2/14
HATTERAS CG      1900   82 78  210/ 13/ 21 1015.1
DIAMOND BUOY     1850   81 82  230/ 23/ 27 1015.5    7/ 7   2/14
CAPE LOOKOUT     1900   83     220/ 13/ 15 1016.2
BEAUFORT LAB     1900   82 81  210/ 14/ 21 1015.5
30 SE NEW RVR IN 1808   80 80  230/ 19/ 25 1017.5
27 SE WRIGHTSVLE 1900      80  230/ 17/ 19   N/A
5 SE WRIGHTSVLE  1808   80 79  210/ 17/ 23 1017.0
225 S CAPE HAT   1850   82 80  240/ 10/ 12 1021.4    5/ 6   5/ 6
41 SE CHARLESTON 1850   81 82  220/ 12/ 14 1018.3    4/ 9   3/ 9

$$


USA.gov is the U.S. government's official web portal to all federal, state and local government web resources and services.